Regional Weather Roundup
Issued by NWS

Home | Current Version | Previous Version | Graphics & Text | Print | Product List | Glossary On
Versions: 1 2 3 4 5 6 7 8 9 10 11 12 13 14 15 16 17 18 19 20 21 22 23 24 25 26 27 28 29 30 31 32 33 34 35 36 37 38 39 40 41 42 43 44 45 46 47 48 49 50
000
ASUS45 KABQ 230910
RWRNM
NEW MEXICO REGIONAL WEATHER ROUNDUP
NATIONAL WEATHER SERVICE ALBUQUERQUE NM
200 AM MST MON JAN 23 2017

NOTE: "FAIR" MEANS FEW OR NO CLOUDS BELOW 12,000 FEET AGL WITH NO
       SIGNIFICANT WEATHER OR OBSTRUCTIONS TO VISION.

      THIS PRODUCT IS RELEASED AS TWO VERSIONS.  ONE VERSION NEAR
      THE TOP OF THE HOUR CONTAINING PRELIMINARY DATA FROM ALBUQUERQUE
      AND OTHER STATIONS.  A FINAL VERSION WITH ADDITIONAL DATA IS
      ISSUED ABOUT 10 MINUTES AFTER THE HOUR.

NMZ501-503-504-510>518-231000-
NORTHWEST PLATEAU/NORTHCENTRAL MOUNTAINS

CITY           SKY/WX    TMP DP  RH WIND       PRES   REMARKS
FARMINGTON     LGT SNOW  29  26  89 E14       30.00F FOG     WCI  18
LOS ALAMOS     CLOUDY    28  27  99 CALM      30.05S
SANTA FE       CLOUDY    33  27  78 CALM      30.04S
TAOS           CLOUDY    28  16  59 SE5       30.05S WCI  23
ANGEL FIRE     LGT SNOW  26  21  82 SW13G18   30.02S WCI  15

$$
NMZ402-403-502-505>509-231000-
WESTCENTRAL MOUNTAINS/SOUTHWEST MOUNTAINS

CITY           SKY/WX    TMP DP  RH WIND       PRES   REMARKS
GALLUP         CLOUDY    32  23  69 S8        30.02F WCI  25
GRANTS         FAIR      33  27  80 CALM      30.04R
SILVER CITY    FAIR      32  26  76 N7        30.11F WCI  26

$$
NMZ407-409-411-412-231000-
SOUTHERN DESERTS

CITY           SKY/WX    TMP DP  RH WIND       PRES   REMARKS
DEMING         FAIR      33  29  85 SW5       30.10F WCI  29
LAS CRUCES     FAIR      38  29  69 W10       30.10F WCI  31
HOLLOMAN AFB   FAIR      37  28  70 E8        30.10F WCI  31
ALAMOGORDO     FAIR      39  25  56 SE3       30.09F
T OR C         FAIR      35  28  75 N5        30.05F WCI  31

$$
NMZ519>523-231000-
CENTRAL VALLEYS/CENTRAL HIGHLANDS

CITY           SKY/WX    TMP DP  RH WIND       PRES   REMARKS
ALBUQUERQUE    MOCLDY    37  31  78 N3        30.05F
DOUBLE EAGLE   MOCLDY    30  29  94 NW3       30.06S
MORIARTY ARPT  CLOUDY    32  27  80 E3        30.06R
CLINES CORNERS MOCLDY    28  25  88 W12       30.03S WCI  18
BELEN          CLOUDY    32  30  92 W3        30.06F
SOCORRO        FAIR      33  26  76 CALM      30.07S

$$
NMZ524>526-539-540-231000-
SOUTHCENTRAL MOUNTAINS

CITY           SKY/WX    TMP DP  RH WIND       PRES   REMARKS
RUIDOSO        FAIR      41  28  60 W13       30.05F

$$
NMZ527>531-231000-
NORTHEAST HIGHLANDS/NORTHEAST PLAINS

CITY           SKY/WX    TMP DP  RH WIND       PRES   REMARKS
LAS VEGAS      FAIR      40  28  62 W26G44    29.88F WCI  29
RATON          FAIR      27  15  61 VRB5      29.85F WCI  22
CLAYTON        FAIR      30  25  81 S6        29.86F WCI  24

$$
NMZ532>537-231000-
EASTCENTRAL PLAINS

CITY           SKY/WX    TMP DP  RH WIND       PRES   REMARKS
TUCUMCARI      FAIR      43  26  51 SW25      29.87F
CANNON AFB     FAIR      34  22  62 SW10      29.95S WCI  26
CLOVIS AIRPORT FAIR      36  21  55 SW10      29.94F WCI  28

$$
NMZ028-029-538-231000-
SOUTHEAST PLAINS

CITY           SKY/WX    TMP DP  RH WIND       PRES   REMARKS
ROSWELL        FAIR      32  25  75 CALM      29.98F
ARTESIA        FAIR      39  27  60 SE3       29.99F
CARLSBAD       FAIR      49  27  42 VRB5      29.99F


$$




USA.gov is the U.S. government's official web portal to all federal, state and local government web resources and services.